Weather in Novaya Ushitsya

Ukraine / Khmelnitsky District     48°50′07″N   27°16′16″E
temp.,
°C
wind,
m/s
gust,
m/s
humid.,
%
clouds,
%
prec.,
mm/h
press.,
hPa
HPBL,
m
17 april, sat
sat1700:00+4wnw6138495 0.0 1017814
03:00+3wnw51393100 0.0 1018689
06:00+2w61092100 0.0 1019652
09:00+3w4896100 0.1 1020644
12:00+5wnw4791100 0.1 1020637
15:00+6nnw347998 0.1 1020663
18:00+8nw227180 0.0 1020806
21:00+6n347953 0.0 1021207
18 april, sun
sun1800:00+4n238823 0.0 102082
03:00+3nne229346 0.0 102022
06:00+2nw119235 0.0 101910
09:00+6n2277100 0.0 1019335
12:00+11n225690 0.0 1018948
15:00+14ne1146100 0.0 10171457
18:00+13ene2246100 0.0 10161568
21:00+10ene3563100 0.0 1017102
19 april, mon
mon1900:00+8e3781100 0.0 1018286
03:00+8ene3583100 0.0 1017185
06:00+6e2387100 0.0 101783
09:00+8ene4570100 0.0 1017471
12:00+11ene445889 0.0 1016989
15:00+13e3446100 0.0 10141724
18:00+12e135690 0.1 1012773
21:00+9ne5968100 0.3 1013402
20 april, tue
tue2000:00+6ne2576100 0.0 1011100
03:00+5nne3879100 0.0 1010154
06:00+4n4990100 0.0 1008252
09:00+7n61077100 0.1 1007655
12:00+11nnw81054100 0.1 10051786
15:00+11nnw71056100 0.1 10051841
18:00+10nw7116288 0.0 10051450
21:00+7wnw497646 0.1 1007226
21 april, wed
wed2100:00+5w48875 0.0 1009165
03:00+4wsw37918 0.0 1009132
06:00+3wsw379223 0.0 1010129
09:00+9wsw467031 0.0 1011410
12:00+13wsw675057 0.4 10111831
15:00+13wsw675278 1.1 10111882
18:00+11wnw476619 0.8 10131047
21:00+8wsw11775 0.8 101410